﻿_id,日時,平均風速(m/s),平均風向,最大瞬間風速(m/s),最大風速時風向,気温(℃),湿度(%),10分間移動積算雨量(mm),1時間移動積算雨量(mm),日雨量(mm),累計雨量(mm)
1,2019-09-23T00:00:00,0.8,北北東,2.5,北北東,22.7,93.9,0,0.5,5,19.5
2,2019-09-23T00:01:00,0.9,北北東,2.5,北北東,22.7,94.1,0,0.5,0,19.5
3,2019-09-23T00:02:00,1,北北東,2.5,北北東,22.8,93.9,0,0.5,0,19.5
4,2019-09-23T00:03:00,1.1,北北東,2.5,北北東,22.8,93.8,0,0.5,0,19.5
5,2019-09-23T00:04:00,1.2,北北東,2.5,北北東,22.8,93.5,0,0.5,0,19.5
6,2019-09-23T00:05:00,1.3,北北東,2.5,北北東,22.8,93.3,0,0.5,0,19.5
7,2019-09-23T00:06:00,1.3,北北東,2.5,北北東,22.9,93.1,0,0.5,0,19.5
8,2019-09-23T00:07:00,1.4,北北東,2.5,北北東,22.9,92.9,0,0.5,0,19.5
9,2019-09-23T00:08:00,1.5,北東,2.5,北北東,23.1,92.2,0,0.5,0,19.5
10,2019-09-23T00:09:00,1.5,北東,3.9,東南東,23.2,91.5,0,0.5,0,19.5
11,2019-09-23T00:10:00,1.6,北東,4.6,東,23.3,90.9,0,0.5,0,19.5
12,2019-09-23T00:11:00,1.8,東北東,4.6,東,23.3,90.4,0,0.5,0,19.5
13,2019-09-23T00:12:00,1.9,東北東,4.6,東,23.4,90.1,0,0.5,0,19.5
14,2019-09-23T00:13:00,2,東北東,4.6,東,23.4,89.6,0,0.5,0,19.5
15,2019-09-23T00:14:00,2,東,4.6,東,23.4,89.4,0,0.5,0,19.5
16,2019-09-23T00:15:00,2.1,東,5.1,東南東,23.5,89.1,0,0.5,0,19.5
17,2019-09-23T00:16:00,2.3,東,5.1,東南東,23.6,88.5,0,0.5,0,19.5
18,2019-09-23T00:17:00,2.4,東,5.1,東南東,23.6,88.2,0,0.5,0,19.5
19,2019-09-23T00:18:00,2.4,東南東,5.1,東南東,23.6,88.1,0,0.5,0,19.5
20,2019-09-23T00:19:00,2.4,東南東,5.1,東南東,23.6,88.2,0,0.5,0,19.5
21,2019-09-23T00:20:00,2.3,東,5.1,東南東,23.6,88.1,0,0.5,0,19.5
22,2019-09-23T00:21:00,2.2,東,5.1,東南東,23.6,88.1,0,0.5,0,19.5
23,2019-09-23T00:22:00,2.1,東,5.1,東南東,23.7,87.9,0,0.5,0,19.5
24,2019-09-23T00:23:00,2.1,東,5.1,東南東,23.7,87.6,0,0.5,0,19.5
25,2019-09-23T00:24:00,2,東,5.1,東南東,23.7,87.5,0,0.5,0,19.5
26,2019-09-23T00:25:00,1.9,東,5,東南東,23.8,87.2,0,0.5,0,19.5
27,2019-09-23T00:26:00,1.7,東,4.3,東,23.8,86.8,0,0.5,0,19.5
28,2019-09-23T00:27:00,1.7,東,4.3,東,23.9,86.5,0,0.5,0,19.5
29,2019-09-23T00:28:00,1.8,東,4.3,東,24,86,0,0.5,0,19.5
30,2019-09-23T00:29:00,1.9,東,6.3,南南東,24.1,85.4,0,0.5,0,19.5
31,2019-09-23T00:30:00,,"",,"",,,,,,
32,2019-09-23T00:31:00,2,東,6.3,南南東,24.4,83.8,0,0.5,0,19.5
33,2019-09-23T00:32:00,2.1,東,6.3,南南東,24.5,83.4,0,0.5,0,19.5
34,2019-09-23T00:33:00,2.1,東南東,6.3,南南東,24.3,83.5,0,0.5,0,19.5
35,2019-09-23T00:34:00,2.1,東南東,6.3,南南東,24.3,83.8,0,0,0,19.5
36,2019-09-23T00:35:00,2,東南東,6.3,南南東,24.3,83.7,0,0,0,19.5
37,2019-09-23T00:36:00,2.1,東南東,6.3,南南東,24.5,83.4,0,0,0,19.5
38,2019-09-23T00:37:00,2.1,東南東,6.3,南南東,24.4,83.3,0,0,0,19.5
39,2019-09-23T00:38:00,2,東南東,6.3,南南東,24.3,83.7,0,0,0,19.5
40,2019-09-23T00:39:00,1.8,南東,4.9,東南東,24.1,84.3,0.5,0.5,0.5,20
41,2019-09-23T00:40:00,1.8,南東,4.9,東南東,24,85.1,1,1,1,20.5
42,2019-09-23T00:41:00,1.9,南東,6.8,南南東,23.9,85.7,1,1,1,20.5
43,2019-09-23T00:42:00,2.2,南南東,9.8,東,24.2,85.6,1.5,1.5,1.5,21
44,2019-09-23T00:43:00,2.5,南南東,9.8,東,24.2,85.3,1.5,1.5,1.5,21
45,2019-09-23T00:44:00,3,南南東,10,南南東,24.1,85.6,2,2,2,21.5
46,2019-09-23T00:45:00,3.3,南南東,10,南南東,24,86.4,2.5,2.5,2.5,22
47,2019-09-23T00:46:00,3.7,南,10,南南東,23.9,86.9,2.5,2.5,2.5,22
48,2019-09-23T00:47:00,3.9,南,10,南南東,23.9,87.3,2.5,2.5,2.5,22
49,2019-09-23T00:48:00,4.1,南,10,南南東,23.9,87.4,3,3,3,22.5
50,2019-09-23T00:49:00,4.7,南南東,10,南南東,24,87.2,3,3.5,3.5,23
51,2019-09-23T00:50:00,5.1,南南東,10,南南東,23.9,87.4,3,4,4,23.5
52,2019-09-23T00:51:00,5.1,南南東,10,南南東,23.9,87.5,3,4,4,23.5
53,2019-09-23T00:52:00,4.7,南南東,10,南南東,23.7,88.3,2.5,4,4,23.5
54,2019-09-23T00:53:00,4.6,南南東,10,南南東,23.8,88.7,3,4.5,4.5,24
55,2019-09-23T00:54:00,4.6,南南東,10.4,南,23.9,88.4,2.5,4.5,4.5,24
56,2019-09-23T00:55:00,4.7,南南東,10.4,南,24.1,87.7,2,4.5,4.5,24
57,2019-09-23T00:56:00,4.8,南南東,10.4,南,24.1,87.4,2,4.5,4.5,24
58,2019-09-23T00:57:00,4.7,南南東,10.4,南,24,87.4,2.5,5,5,24.5
59,2019-09-23T00:58:00,4.5,南南東,10.4,南,23.7,88.2,2,5,5,24.5
60,2019-09-23T00:59:00,4.2,南南東,10.4,南,23.6,89,1.5,5,5,24.5
61,2019-09-23T01:00:00,4.1,南南東,10.4,南,23.6,89.7,1.5,5.5,5.5,25
62,2019-09-23T01:01:00,4.2,南南東,10.4,南,23.6,89.9,1.5,5.5,5.5,25
63,2019-09-23T01:02:00,4.5,南南東,10.4,南,23.6,90.1,1.5,5.5,5.5,25
64,2019-09-23T01:03:00,4.6,南南東,10.4,南,23.7,89.8,1,5.5,5.5,25
65,2019-09-23T01:04:00,4.5,南南東,10,南南東,23.6,90.1,1.5,6,6,25.5
66,2019-09-23T01:05:00,4.1,南南東,10,南南東,23.4,90.6,1.5,6,6,25.5
67,2019-09-23T01:06:00,,"",,"",,,,,,
68,2019-09-23T01:07:00,3.8,南東,10,南南東,23.4,91.6,1,6,6,25.5
69,2019-09-23T01:08:00,3.8,南東,10,南南東,23.3,91.9,1.5,6.5,6.5,26
70,2019-09-23T01:09:00,4,南東,10,南南東,23.2,92.4,1.5,6.5,6.5,26
71,2019-09-23T01:10:00,3.9,南東,10,南南東,23.3,92.4,1,6.5,6.5,26
72,2019-09-23T01:11:00,3.9,南東,10,南南東,23.3,92.3,1,6.5,6.5,26
73,2019-09-23T01:12:00,3.9,南東,10,南南東,23.4,92,1.5,7,7,26.5
74,2019-09-23T01:13:00,4,南東,9.5,南東,23.4,91.8,1.5,7,7,26.5
75,2019-09-23T01:14:00,3.9,南東,9.5,南東,23.4,91.9,1.5,7.5,7.5,27
76,2019-09-23T01:15:00,4.1,南東,9.5,南東,23.4,92,2,8,8,27.5
77,2019-09-23T01:16:00,4.4,南東,9.5,南東,23.4,91.8,2,8,8,27.5
78,2019-09-23T01:17:00,4.6,南東,9.5,南東,23.4,92,2.5,8.5,8.5,28
79,2019-09-23T01:18:00,4.8,南東,9.5,南東,23.3,92.1,2,8.5,8.5,28
80,2019-09-23T01:19:00,4.8,南東,9.5,南東,23.4,92.2,2,8.5,8.5,28
81,2019-09-23T01:20:00,4.8,南東,9.5,南東,23.3,92.1,2.5,9,9,28.5
82,2019-09-23T01:21:00,4.8,南東,9.1,南南東,23.3,92.3,3,9.5,9.5,29
83,2019-09-23T01:22:00,4.6,南東,9,南南東,23.3,92.4,2.5,9.5,9.5,29
84,2019-09-23T01:23:00,4.3,南東,9,南南東,23.3,92.8,2.5,9.5,9.5,29
85,2019-09-23T01:24:00,4.2,南東,9,南南東,23.2,92.9,2,9.5,9.5,29
86,2019-09-23T01:25:00,4.3,南東,9,南南東,23.3,93.1,2,10,10,29.5
87,2019-09-23T01:26:00,4,南東,8.6,南南東,23.5,92.4,2.5,10.5,10.5,30
88,2019-09-23T01:27:00,3.8,南東,8.6,南南東,23.4,92.1,2,10.5,10.5,30
89,2019-09-23T01:28:00,3.7,南東,8.6,南南東,23.5,91.9,2,10.5,10.5,30
90,2019-09-23T01:29:00,3.9,南東,10.5,南東,23.5,91.9,2,10.5,10.5,30
91,2019-09-23T01:30:00,3.9,南東,10.5,南東,23.5,91.9,1.5,10.5,10.5,30
92,2019-09-23T01:31:00,4,南東,10.5,南東,23.5,92,1,10.5,10.5,30
93,2019-09-23T01:32:00,4.1,南東,10.5,南東,23.5,92.1,1.5,11,11,30.5
94,2019-09-23T01:33:00,4.6,南東,11.1,南東,23.6,92,1.5,11,11,30.5
95,2019-09-23T01:34:00,4.9,南東,11.1,南東,23.6,91.8,1.5,11,11,30.5
96,2019-09-23T01:35:00,4.7,南東,11.1,南東,23.4,92,1.5,11.5,11.5,31
97,2019-09-23T01:36:00,4.7,南東,11.1,南東,23.3,92.7,1,11.5,11.5,31
98,2019-09-23T01:37:00,4.9,南東,11.1,南東,23.4,93.2,1,11.5,11.5,31
99,2019-09-23T01:38:00,5,南東,11.1,南東,23.4,93.2,1,11.5,11.5,31
100,2019-09-23T01:39:00,4.9,南東,11.1,南東,23.4,93.2,1,11,11.5,31
101,2019-09-23T01:40:00,5,南東,11.1,南東,23.4,93.2,1,10.5,11.5,31
102,2019-09-23T01:41:00,5.1,南東,11.1,南東,23.4,93.3,1.5,11,12,31.5
103,2019-09-23T01:42:00,,"",,"",,,,,,
104,2019-09-23T01:43:00,4.6,南東,10,南東,23.3,93.5,1,10.5,12,31.5
105,2019-09-23T01:44:00,,"",,"",,,,,,
106,2019-09-23T01:45:00,4.6,南東,10,南東,23.3,93.9,1,10,12.5,32
107,2019-09-23T01:46:00,4.8,南東,10,南東,23.3,93.8,1.5,10.5,13,32.5
108,2019-09-23T01:47:00,4.8,南東,9.4,南南東,23.3,94,1.5,10.5,13,32.5
109,2019-09-23T01:48:00,4.7,南東,9.4,南南東,23.2,94.3,2,10.5,13.5,33
110,2019-09-23T01:49:00,4.7,南東,9.4,南南東,23.1,94.8,2,10,13.5,33
111,2019-09-23T01:50:00,4.7,南東,9.4,南南東,23.3,95.1,2.5,10,14,33.5
112,2019-09-23T01:51:00,4.6,南東,9.4,南南東,23.3,94.8,2,10,14,33.5
113,2019-09-23T01:52:00,4.6,南東,9.4,南南東,23.3,94.5,3,11,15,34.5
114,2019-09-23T01:53:00,4.6,南東,9.4,南南東,23.2,94.8,3.5,11,15.5,35
115,2019-09-23T01:54:00,4.7,南東,9.4,南南東,23.2,95.1,3,11,15.5,35
116,2019-09-23T01:55:00,4.9,南東,9.4,南南東,23.3,95.1,3,11,15.5,35
117,2019-09-23T01:56:00,5,南東,9.5,東南東,23.4,94.7,2.5,11,15.5,35
118,2019-09-23T01:57:00,5,南東,11,南東,23.4,94.2,2.5,10.5,15.5,35
119,2019-09-23T01:58:00,5.1,南東,11,南東,23.6,94.2,2,10.5,15.5,35
120,2019-09-23T01:59:00,5.1,南東,11,南東,23.6,93.5,2,10.5,15.5,35
121,2019-09-23T02:00:00,4.9,南東,11,南東,23.7,93.3,1.5,10,15.5,35
122,2019-09-23T02:01:00,4.8,南東,11,南東,23.6,93.1,1.5,10,15.5,35
123,2019-09-23T02:02:00,4.7,南東,11,南東,23.7,93.2,0.5,10,15.5,35
124,2019-09-23T02:03:00,4.9,南東,11,南東,23.8,92.7,0,10,15.5,35
125,2019-09-23T02:04:00,4.9,南東,11,南東,23.8,92.3,0,9.5,15.5,35
126,2019-09-23T02:05:00,4.7,南東,11,南東,23.9,92.2,0,9.5,15.5,35
127,2019-09-23T02:06:00,4.5,南東,11,南東,23.9,92.1,0,9.5,15.5,35
128,2019-09-23T02:07:00,4.5,南南東,11.7,南南東,24.1,92.2,0,9.5,15.5,35
129,2019-09-23T02:08:00,5,南南東,16.4,南,24.5,91.7,0,9,15.5,35
130,2019-09-23T02:09:00,5.4,南南東,16.4,南,24.7,90.5,0.5,9.5,16,35.5
131,2019-09-23T02:10:00,5.9,南南東,17.3,南南東,24.7,89.9,0.5,9.5,16,35.5
132,2019-09-23T02:11:00,6.3,南南東,17.3,南南東,25.1,88.8,1,10,16.5,36
133,2019-09-23T02:12:00,6.5,南南東,17.3,南南東,25.2,87.7,1,9.5,16.5,36
134,2019-09-23T02:13:00,6.6,南南東,17.3,南南東,24.9,87.5,1,9.5,16.5,36
135,2019-09-23T02:14:00,6.9,南南東,17.7,南南東,25,87.8,1,9,16.5,36
136,2019-09-23T02:15:00,7.3,南南東,18.5,南,25.5,86.8,1,8.5,16.5,36
137,2019-09-23T02:16:00,,"",,"",,,,,,
138,2019-09-23T02:17:00,8.1,南南東,18.5,南,25.5,85.3,1,8,16.5,36
139,2019-09-23T02:18:00,8.2,南南東,23.8,南南東,25.6,85.3,1,8,16.5,36
140,2019-09-23T02:19:00,,"",,"",,,,,,
141,2019-09-23T02:20:00,9,南南東,24.7,南南東,26.3,82.9,0.5,7.5,16.5,36
142,2019-09-23T02:21:00,9.2,南南東,24.7,南南東,26.1,82.7,0,7,16.5,36
143,2019-09-23T02:22:00,9.3,南南東,24.7,南南東,25.9,83,0,7,16.5,36
144,2019-09-23T02:23:00,10.1,南南東,28,南南東,26.1,82.6,0,7,16.5,36
145,2019-09-23T02:24:00,10.5,南南東,28,南南東,26.1,82.7,0,7,16.5,36
146,2019-09-23T02:25:00,10.2,南南東,28,南南東,26.1,82.4,0,6.5,16.5,36
147,2019-09-23T02:26:00,10.3,南南東,28,南南東,26.1,82.5,0,6,16.5,36
148,2019-09-23T02:27:00,10,南南東,28,南南東,26,82.6,0,6,16.5,36
149,2019-09-23T02:28:00,9.7,南南東,28,南南東,26.1,82.8,0,6,16.5,36
150,2019-09-23T02:29:00,9.4,南南東,28,南南東,26,83.1,0,6,16.5,36
151,2019-09-23T02:30:00,9.2,南南東,28,南南東,26.1,83.1,0,6,16.5,36
152,2019-09-23T02:31:00,9.3,南南東,28,南南東,26.1,83.3,0,6,16.5,36
153,2019-09-23T02:32:00,9.8,南南東,28,南南東,26,83.6,0,5.5,16.5,36
154,2019-09-23T02:33:00,9.3,南南東,22.9,南南東,25.9,84.4,0,5.5,16.5,36
155,2019-09-23T02:34:00,9.2,南南東,19.7,南南東,25.7,84.8,0,5.5,16.5,36
156,2019-09-23T02:35:00,9.6,南南東,19.7,南南東,25.6,85.6,0,5,16.5,36
157,2019-09-23T02:36:00,9.4,南南東,19.7,南南東,25.6,86.2,0.5,5.5,17,36.5
158,2019-09-23T02:37:00,9.7,南南東,19.7,南南東,25.5,86.7,0.5,5.5,17,36.5
159,2019-09-23T02:38:00,9.7,南南東,19.7,南南東,25.3,87.3,0.5,5.5,17,36.5
160,2019-09-23T02:39:00,9.4,南南東,16.6,南,25.2,88.3,1,6,17.5,37
161,2019-09-23T02:40:00,9.3,南南東,16.6,南,25.3,88.6,1,6,17.5,37
162,2019-09-23T02:41:00,8.8,南南東,16.6,南,25.3,88.8,1,5.5,17.5,37
163,2019-09-23T02:42:00,8.6,南南東,16.4,南南西,25.5,88.3,1,5.5,17.5,37
164,2019-09-23T02:43:00,8.4,南南東,16.5,南,25.5,88.2,1.5,6,18,37.5
165,2019-09-23T02:44:00,8.1,南南東,16.5,南,25.5,87.9,1.5,5.5,18,37.5
166,2019-09-23T02:45:00,7.8,南南東,16.5,南,25.5,87.6,2,6,18.5,38
167,2019-09-23T02:46:00,7.9,南南東,16.5,南,25.5,87.9,1.5,5.5,18.5,38
168,2019-09-23T02:47:00,7.7,南南東,16.5,南,25.5,87.9,1.5,5.5,18.5,38
169,2019-09-23T02:48:00,8,南南東,17.2,南東,25.7,87.2,2,5.5,19,38.5
170,2019-09-23T02:49:00,8.4,南南東,17.2,南東,25.7,87.1,1.5,5.5,19,38.5
171,2019-09-23T02:50:00,,"",,"",,,,,,
172,2019-09-23T02:51:00,8.8,南南東,17.2,南東,25.9,86.2,1.5,5,19,38.5
173,2019-09-23T02:52:00,8.9,南南東,17.2,南東,25.8,86,1.5,4,19,38.5
174,2019-09-23T02:53:00,9.1,南南東,17.2,南東,25.7,86.4,1.5,4,19.5,39
175,2019-09-23T02:54:00,,"",,"",,,,,,
176,2019-09-23T02:55:00,9.7,南南東,17.5,南東,26.1,85.3,1,4,19.5,39
177,2019-09-23T02:56:00,9.9,南南東,17.5,南東,26.1,85.1,1,4,19.5,39
178,2019-09-23T02:57:00,10.2,南南東,17.5,南東,26.2,84.4,1,4,19.5,39
179,2019-09-23T02:58:00,10.2,南南東,18.2,南,26.3,84.2,0.5,4,19.5,39
180,2019-09-23T02:59:00,10.3,南南東,18.3,南東,26.3,84,0.5,4,19.5,39
181,2019-09-23T03:00:00,10.3,南南東,18.3,南東,26.3,84,0.5,4,19.5,39
182,2019-09-23T03:01:00,9.8,南南東,18.3,南東,26.2,84,0.5,4,19.5,39
183,2019-09-23T03:02:00,9.3,南南東,18.3,南東,26.3,83.7,0.5,4,19.5,39
184,2019-09-23T03:03:00,9.5,南南東,18.3,南東,26.3,83.6,0,4,19.5,39
185,2019-09-23T03:04:00,9.2,南南東,18.3,南東,26.3,83.5,0,4,19.5,39
186,2019-09-23T03:05:00,8.6,南南東,18.3,南東,26.3,83.3,0,4,19.5,39
187,2019-09-23T03:06:00,8.5,南南東,18.3,南東,26.4,82.9,0,4,19.5,39
188,2019-09-23T03:07:00,8,南南東,18.3,南東,26.4,82.8,0,4,19.5,39
189,2019-09-23T03:08:00,7.5,南南東,18.3,南東,26.3,82.9,0,4,19.5,39
190,2019-09-23T03:09:00,7.1,南南東,16.4,南南東,26.3,83.1,0,3.5,19.5,39
191,2019-09-23T03:10:00,7.2,南南東,16.4,南南東,26.4,83.1,0,3.5,19.5,39
192,2019-09-23T03:11:00,7.7,南南東,20.6,南東,26.4,83.1,0,3,19.5,39
193,2019-09-23T03:12:00,8.6,南南東,22.2,南東,26.6,82.2,0,3,19.5,39
194,2019-09-23T03:13:00,8.3,南南東,22.2,南東,26.6,81.9,0,3,19.5,39
195,2019-09-23T03:14:00,8.4,南南東,22.2,南東,26.5,82.3,0,3,19.5,39
196,2019-09-23T03:15:00,8.5,南南東,22.2,南東,26.5,82.2,0,3,19.5,39
197,2019-09-23T03:16:00,8.7,南南東,22.2,南東,26.5,82,0,3,19.5,39
198,2019-09-23T03:17:00,8.7,南南東,22.2,南東,26.6,81.8,0,3,19.5,39
199,2019-09-23T03:18:00,9.1,南南東,22.2,南東,26.6,81.2,0,3,19.5,39
200,2019-09-23T03:19:00,9.1,南南東,22.2,南東,26.6,81.1,0,3,19.5,39
201,2019-09-23T03:20:00,8.9,南南東,22.2,南東,26.7,80.2,0,3,19.5,39
202,2019-09-23T03:21:00,8.5,南南東,22.2,南東,26.7,80.2,0,3,19.5,39
203,2019-09-23T03:22:00,8.3,南南東,19.2,南南東,26.6,80.1,0,3,19.5,39
204,2019-09-23T03:23:00,8.6,南南東,19.2,南南東,26.8,79.3,0,3,19.5,39
205,2019-09-23T03:24:00,9.2,南南東,22,南東,26.9,78.5,0,3,19.5,39
206,2019-09-23T03:25:00,9.7,南南東,22,南東,27.1,77.7,0,3,19.5,39
207,2019-09-23T03:26:00,,"",,"",,,,,,
208,2019-09-23T03:27:00,10.3,南南東,23.9,南東,27,77.6,0,3,19.5,39
209,2019-09-23T03:28:00,10.7,南南東,23.9,南東,27.1,77.2,0,3,19.5,39
210,2019-09-23T03:29:00,,"",,"",,,,,,
211,2019-09-23T03:30:00,11.2,南南東,23.9,南東,27,77.4,0,3,19.5,39
212,2019-09-23T03:31:00,11.5,南南東,23.9,南東,27,77.4,0,3,19.5,39
213,2019-09-23T03:32:00,11.2,南南東,23.9,南東,26.9,77.5,0,3,19.5,39
214,2019-09-23T03:33:00,11.3,南南東,23.9,南東,27,77.2,0,3,19.5,39
215,2019-09-23T03:34:00,11.3,南南東,23.9,南東,27.1,77.1,0,3,19.5,39
216,2019-09-23T03:35:00,10.7,南南東,23.9,南東,27,77.1,0,3,19.5,39
217,2019-09-23T03:36:00,10.4,南南東,23.9,南東,26.9,77.1,0,2.5,19.5,39
218,2019-09-23T03:37:00,9.8,南南東,21.7,南南東,26.9,77.4,0,2.5,19.5,39
219,2019-09-23T03:38:00,9.1,南南東,20.4,南東,27,77,0,2.5,19.5,39
220,2019-09-23T03:39:00,9.3,南南東,24.1,南南東,27.1,76.6,0,2,19.5,39
221,2019-09-23T03:40:00,9.4,南南東,24.1,南南東,27.2,76,0,2,19.5,39
222,2019-09-23T03:41:00,9.4,南南東,24.1,南南東,27.2,75.6,0,2,19.5,39
223,2019-09-23T03:42:00,10,南南東,25.3,南南東,27.2,75.5,0,2,19.5,39
224,2019-09-23T03:43:00,9.5,南南東,25.3,南南東,27.3,75.1,0,1.5,19.5,39
225,2019-09-23T03:44:00,9.3,南南東,25.3,南南東,27.3,74.6,0,1.5,19.5,39
226,2019-09-23T03:45:00,10.1,南南東,25.3,南南東,27.3,74.8,0,1,19.5,39
227,2019-09-23T03:46:00,10.6,南南東,25.3,南南東,27.3,74.7,0,1,19.5,39
228,2019-09-23T03:47:00,10.9,南南東,25.3,南南東,27.2,75,0,1,19.5,39
229,2019-09-23T03:48:00,11.5,南南東,25.3,南南東,27.3,74.5,0,0.5,19.5,39
230,2019-09-23T03:49:00,11.7,南南東,25.3,南南東,27.3,74.6,0,0.5,19.5,39
231,2019-09-23T03:50:00,11.4,南南東,25.3,南南東,27.2,74.8,0,0.5,19.5,39
232,2019-09-23T03:51:00,11.4,南南東,25.3,南南東,27.1,75.2,0,0.5,19.5,39
233,2019-09-23T03:52:00,10.8,南南東,25,南南東,27.1,75.5,0,0.5,19.5,39
234,2019-09-23T03:53:00,11.1,南南東,25,南南東,27.3,75,0,0,19.5,39
235,2019-09-23T03:54:00,11.3,南南東,25,南南東,27.3,74.8,0,0,19.5,39
236,2019-09-23T03:55:00,10.6,南南東,23.2,南南東,27.3,74.9,0,0,19.5,39
237,2019-09-23T03:56:00,10.4,南南東,23.2,南南東,27.3,75,0,0,19.5,39
238,2019-09-23T03:57:00,10.4,南南東,23.2,南南東,27.3,75.1,0,0,19.5,39
239,2019-09-23T03:58:00,10.3,南南東,20.5,南,27.3,75.1,0,0,19.5,39
240,2019-09-23T03:59:00,10.1,南南東,20.8,南南東,27.3,75,0,0,19.5,39
241,2019-09-23T04:00:00,,"",,"",,,,,,
242,2019-09-23T04:01:00,10.6,南南東,20.8,南南東,27.4,74.8,0,0,19.5,39
243,2019-09-23T04:02:00,,"",,"",,,,,,
244,2019-09-23T04:03:00,10.9,南南東,23.8,南南東,27.4,74.9,0,0,19.5,39
245,2019-09-23T04:04:00,10.4,南南東,23.8,南南東,27.3,75.2,0,0,19.5,39
246,2019-09-23T04:05:00,10.3,南南東,23.8,南南東,27.4,75,0,0,19.5,39
247,2019-09-23T04:06:00,10.1,南南東,23.8,南南東,27.4,75,0,0,19.5,39
248,2019-09-23T04:07:00,10.2,南南東,23.8,南南東,27.4,75.1,0,0,19.5,39
249,2019-09-23T04:08:00,9.9,南南東,23.8,南南東,27.4,75.1,0,0,19.5,39
250,2019-09-23T04:09:00,9.6,南南東,23.8,南南東,27.4,75.2,0,0,19.5,39
251,2019-09-23T04:10:00,9.8,南南東,23.8,南南東,27.4,75.2,0,0,19.5,39
252,2019-09-23T04:11:00,9.5,南南東,23.8,南南東,27.4,75.3,0,0,19.5,39
253,2019-09-23T04:12:00,9.3,南南東,21.1,南南東,27.4,75.2,0,0,19.5,39
254,2019-09-23T04:13:00,9.1,南南東,21.1,南南東,27.4,75.3,0,0,19.5,39
255,2019-09-23T04:14:00,9.5,南南東,21.1,南南東,27.4,75.5,0,0,19.5,39
256,2019-09-23T04:15:00,9.9,南南東,21.1,南南東,27.4,75.4,0,0,19.5,39
257,2019-09-23T04:16:00,9.7,南南東,21.1,南南東,27.4,75.6,0,0,19.5,39
258,2019-09-23T04:17:00,9.2,南南東,21.1,南南東,27.4,75.7,0,0,19.5,39
259,2019-09-23T04:18:00,9,南南東,21.1,南南東,27.3,75.9,0,0,19.5,39
260,2019-09-23T04:19:00,9.4,南南東,21.1,南南東,27.3,76.1,0,0,19.5,39
261,2019-09-23T04:20:00,9,南南東,20.6,南東,27.4,76,0,0,19.5,39
262,2019-09-23T04:21:00,8.7,南南東,20.6,南東,27.4,75.9,0,0,19.5,39
263,2019-09-23T04:22:00,8.4,南南東,20.6,南東,27.4,76.1,0,0,19.5,39
264,2019-09-23T04:23:00,8.4,南南東,20.6,南東,27.4,76.3,0,0,19.5,39
265,2019-09-23T04:24:00,8.4,南南東,20.6,南東,27.4,76.5,0,0,19.5,39
266,2019-09-23T04:25:00,8.2,南南東,16.7,南南東,27.4,76.8,0,0,19.5,39
267,2019-09-23T04:26:00,8.5,南南東,16.7,南南東,27.4,76.9,0,0,19.5,39
268,2019-09-23T04:27:00,8.8,南南東,17,南東,27.5,76.6,0,0,19.5,39
269,2019-09-23T04:28:00,8.9,南南東,17,南東,27.5,76.9,0,0,19.5,39
270,2019-09-23T04:29:00,8.5,南南東,17,南東,27.4,77,0,0,19.5,39
271,2019-09-23T04:30:00,8.7,南南東,20.1,南,27.4,77.3,0,0,19.5,39
272,2019-09-23T04:31:00,9.1,南南東,20.1,南,27.5,77.5,0,0,19.5,39
273,2019-09-23T04:32:00,9.1,南南東,20.1,南,27.5,77.5,0,0,19.5,39
274,2019-09-23T04:33:00,8.7,南南東,20.1,南,27.4,77.7,0,0,19.5,39
275,2019-09-23T04:34:00,8,南南東,20.1,南,27.3,77.8,0,0,19.5,39
276,2019-09-23T04:35:00,,"",,"",,,,,,
277,2019-09-23T04:36:00,7.4,南,20.1,南,27.3,78,0,0,19.5,39
278,2019-09-23T04:37:00,7.2,南,20.1,南,27.4,77.6,0,0,19.5,39
279,2019-09-23T04:38:00,7.2,南,20.1,南,27.4,77.7,0,0,19.5,39
280,2019-09-23T04:39:00,7.1,南,20.1,南,27.4,77.8,0,0,19.5,39
281,2019-09-23T04:40:00,7,南,19.1,南,27.4,77.6,0,0,19.5,39
282,2019-09-23T04:41:00,6.8,南南東,18.8,南東,27.5,77.3,0,0,19.5,39
283,2019-09-23T04:42:00,7.5,南南東,22.8,南南東,27.5,77,0,0,19.5,39
284,2019-09-23T04:43:00,8,南南東,22.8,南南東,27.6,76.9,0,0,19.5,39
285,2019-09-23T04:44:00,8.6,南南東,22.8,南南東,27.6,76.8,0,0,19.5,39
286,2019-09-23T04:45:00,8.8,南南東,22.8,南南東,27.6,76.8,0,0,19.5,39
287,2019-09-23T04:46:00,9,南南東,22.8,南南東,27.5,77,0,0,19.5,39
288,2019-09-23T04:47:00,9.3,南南東,22.8,南南東,27.5,77.2,0,0,19.5,39
289,2019-09-23T04:48:00,9.2,南南東,22.8,南南東,27.5,77.4,0,0,19.5,39
290,2019-09-23T04:49:00,9,南南東,22.8,南南東,27.4,77.5,0,0,19.5,39
291,2019-09-23T04:50:00,9.2,南南東,22.9,南南東,27.5,77.1,0,0,19.5,39
292,2019-09-23T04:51:00,9.4,南南東,22.9,南南東,27.5,77.2,0,0,19.5,39
293,2019-09-23T04:52:00,8.7,南南東,22.9,南南東,27.5,77,0,0,19.5,39
294,2019-09-23T04:53:00,8.5,南南東,22.9,南南東,27.5,76.8,0,0,19.5,39
295,2019-09-23T04:54:00,8.8,南南東,22.9,南南東,27.5,76.7,0,0,19.5,39
296,2019-09-23T04:55:00,8.8,南南東,22.9,南南東,27.5,77,0,0,19.5,39
297,2019-09-23T04:56:00,8.6,南南東,22.9,南南東,27.5,76.8,0,0,19.5,39
298,2019-09-23T04:57:00,8.6,南南東,22.9,南南東,27.5,76.5,0,0,19.5,39
299,2019-09-23T04:58:00,8.4,南南東,22.9,南南東,27.4,76.4,0,0,19.5,39
300,2019-09-23T04:59:00,8.9,南南東,22.9,南南東,27.4,76.5,0,0,19.5,39
301,2019-09-23T05:00:00,8.7,南南東,20.6,南,27.4,76.1,0,0,19.5,39
302,2019-09-23T05:01:00,8.5,南南東,17.7,南東,27.4,76,0,0,19.5,39
303,2019-09-23T05:02:00,8.8,南南東,17.7,南東,27.4,75.9,0,0,19.5,39
304,2019-09-23T05:03:00,8.8,南南東,17.7,南東,27.5,75.9,0,0,19.5,39
305,2019-09-23T05:04:00,8.4,南南東,17.7,南東,27.4,75.8,0,0,19.5,39
306,2019-09-23T05:05:00,8.4,南南東,17.7,南東,27.4,75.9,0,0,19.5,39
307,2019-09-23T05:06:00,,"",,"",,,,,,
308,2019-09-23T05:07:00,8.7,南南東,17.7,南東,27.3,76,0,0,19.5,39
309,2019-09-23T05:08:00,,"",,"",,,,,,
310,2019-09-23T05:09:00,8.4,南南東,17.7,南東,27.3,76.3,0,0,19.5,39
311,2019-09-23T05:10:00,8.2,南南東,15.2,南南東,27.3,76.3,0,0,19.5,39
312,2019-09-23T05:11:00,8.2,南南東,16.7,南南東,27.3,76.4,0,0,19.5,39
313,2019-09-23T05:12:00,8.1,南南東,16.7,南南東,27.4,76.1,0,0,19.5,39
314,2019-09-23T05:13:00,8.2,南南東,16.7,南南東,27.4,76.3,0,0,19.5,39
315,2019-09-23T05:14:00,8,南南東,16.7,南南東,27.3,76.5,0,0,19.5,39
316,2019-09-23T05:15:00,8.1,南南東,16.7,南南東,27.3,76.4,0,0,19.5,39
317,2019-09-23T05:16:00,7.8,南南東,16.7,南南東,27.4,76.1,0,0,19.5,39
318,2019-09-23T05:17:00,7.3,南南東,16.7,南南東,27.3,76.3,0,0,19.5,39
319,2019-09-23T05:18:00,7,南南東,16.7,南南東,27.2,76.7,0,0,19.5,39
320,2019-09-23T05:19:00,6.7,南南東,16.7,南南東,27.1,77.1,0,0,19.5,39
321,2019-09-23T05:20:00,6.1,南,16.7,南南東,27.2,77,0,0,19.5,39
322,2019-09-23T05:21:00,5.6,南,12.8,南南東,27.2,77.1,0,0,19.5,39
323,2019-09-23T05:22:00,5.5,南,14.3,南,27.3,76.8,0,0,19.5,39
324,2019-09-23T05:23:00,5.5,南,14.3,南,27.4,76.2,0,0,19.5,39
325,2019-09-23T05:24:00,5.6,南,14.3,南,27.4,76,0,0,19.5,39
326,2019-09-23T05:25:00,5.3,南,14.3,南,27.3,76.4,0,0,19.5,39
327,2019-09-23T05:26:00,5.4,南,14.3,南,27.3,76.8,0,0,19.5,39
328,2019-09-23T05:27:00,5.7,南南東,14.3,南,27.2,77,0,0,19.5,39
329,2019-09-23T05:28:00,5.9,南南東,14.3,南,27.2,77.1,0,0,19.5,39
330,2019-09-23T05:29:00,6.3,南南東,14.3,南,27.2,77.2,0,0,19.5,39
331,2019-09-23T05:30:00,6.8,南南東,14.3,南,27.3,76.8,0,0,19.5,39
332,2019-09-23T05:31:00,6.8,南南東,14.3,南,27.5,75.9,0,0,19.5,39
333,2019-09-23T05:32:00,6.1,南南東,13.4,南南東,27.5,75.9,0,0,19.5,39
334,2019-09-23T05:33:00,5.5,南南東,13.4,南南東,27.4,75.9,0,0,19.5,39
335,2019-09-23T05:34:00,5,南,13.4,南南東,27.4,76.1,0,0,19.5,39
336,2019-09-23T05:35:00,4.5,南南東,13.4,南南東,27.3,76.4,0,0,19.5,39
337,2019-09-23T05:36:00,4.2,南南東,11.3,南南東,27.3,76.5,0,0,19.5,39
338,2019-09-23T05:37:00,4.3,南南東,12.6,南南東,27.2,76.9,0,0,19.5,39
339,2019-09-23T05:38:00,4.5,南南東,14.7,南南東,27.3,76.9,0,0,19.5,39
340,2019-09-23T05:39:00,4.4,南,14.7,南南東,27.3,76.6,0,0,19.5,39
341,2019-09-23T05:40:00,,"",,"",,,,,,
342,2019-09-23T05:41:00,4.5,南,14.7,南南東,27.4,76.2,0,0,19.5,39
343,2019-09-23T05:42:00,4.9,南南東,14.7,南南東,27.3,76.2,0,0,19.5,39
344,2019-09-23T05:43:00,5.4,南南東,14.7,南南東,27.3,76.4,0,0,19.5,39
345,2019-09-23T05:44:00,5.5,南南東,14.7,南南東,27.3,76.4,0,0,19.5,39
346,2019-09-23T05:45:00,5.8,南南東,14.7,南南東,27.3,76.6,0,0,19.5,39
347,2019-09-23T05:46:00,5.7,南南東,14.7,南南東,27.3,76.5,0,0,19.5,39
348,2019-09-23T05:47:00,5.1,南南東,14.7,南南東,27.2,76.8,0,0,19.5,39
349,2019-09-23T05:48:00,4.9,南南東,12.8,南,27.3,76.5,0,0,19.5,39
350,2019-09-23T05:49:00,4.7,南南東,12.4,東南東,27.3,76.5,0,0,19.5,39
351,2019-09-23T05:50:00,4.6,南南東,12.4,東南東,27.3,76.4,0,0,19.5,39
352,2019-09-23T05:51:00,4.4,南南東,12.4,東南東,27.3,76.5,0,0,19.5,39
353,2019-09-23T05:52:00,4.3,南,10.6,南南東,27.3,76.4,0,0,19.5,39
354,2019-09-23T05:53:00,4,南,10.6,南南東,27.4,75.8,0,0,19.5,39
355,2019-09-23T05:54:00,4,南,10.6,南南東,27.3,76.3,0,0,19.5,39
356,2019-09-23T05:55:00,4.1,南,10.6,南南東,27.4,76.1,0,0,19.5,39
357,2019-09-23T05:56:00,4.4,南,11.1,南,27.3,76.2,0,0,19.5,39
358,2019-09-23T05:57:00,4.7,南,11.1,南,27.3,75.9,0,0,19.5,39
359,2019-09-23T05:58:00,4.4,南,11.1,南,27.4,75.8,0,0,19.5,39
360,2019-09-23T05:59:00,4.1,南,11.1,南,27.3,76,0,0,19.5,39
361,2019-09-23T06:00:00,4,南,11.1,南,27.2,76.2,0,0,19.5,39
362,2019-09-23T06:01:00,4,南,11.1,南,27.3,76,0,0,19.5,39
363,2019-09-23T06:02:00,4,南南東,11.1,南,27.3,76.2,0,0,19.5,39
364,2019-09-23T06:03:00,4.2,南南東,11.1,南,27.2,76.3,0,0,19.5,39
365,2019-09-23T06:04:00,4.5,南南東,15.2,南東,27.2,76.2,0,0,19.5,39
366,2019-09-23T06:05:00,4.6,南南東,15.2,南東,27.2,76.2,0,0,19.5,39
367,2019-09-23T06:06:00,4.5,南南東,15.2,南東,27.2,76.3,0,0,19.5,39
368,2019-09-23T06:07:00,4.9,南南東,15.2,南東,27.3,75.5,0,0,19.5,39
369,2019-09-23T06:08:00,5,南東,15.2,南東,27.5,74.7,0,0,19.5,39
370,2019-09-23T06:09:00,5.4,南南東,15.2,南東,27.5,74.8,0,0,19.5,39
371,2019-09-23T06:10:00,5.9,南南東,15.2,南東,27.4,74.8,0,0,19.5,39
372,2019-09-23T06:11:00,6.2,南南東,15.2,南東,27.4,74.9,0,0,19.5,39
373,2019-09-23T06:12:00,,"",,"",,,,,,
374,2019-09-23T06:13:00,6.3,南南東,15.2,南東,27.3,75.4,0,0,19.5,39
375,2019-09-23T06:14:00,6,南南東,14.5,南,27.2,75.6,0,0,19.5,39
376,2019-09-23T06:15:00,6.2,南南東,14.5,南,27.2,75.7,0,0,19.5,39
377,2019-09-23T06:16:00,6.3,南南東,14.5,南,27.2,75.7,0,0,19.5,39
378,2019-09-23T06:17:00,5.9,南南東,14.5,南,27.2,75.8,0,0,19.5,39
379,2019-09-23T06:18:00,6.1,南南東,14.5,南,27.2,75.9,0,0,19.5,39
380,2019-09-23T06:19:00,6,南南東,14.5,南,27.2,76,0,0,19.5,39
381,2019-09-23T06:20:00,5.8,南南東,11.8,南南東,27.2,75.8,0,0,19.5,39
382,2019-09-23T06:21:00,5.5,南南東,11.6,南南東,27.2,75.6,0,0,19.5,39
383,2019-09-23T06:22:00,5.7,南南東,11.6,南南東,27.2,75.6,0,0,19.5,39
384,2019-09-23T06:23:00,6,南南東,12.1,南南東,27.1,76,0,0,19.5,39
385,2019-09-23T06:24:00,6.4,南南東,16,南南東,27.1,76.2,0,0,19.5,39
386,2019-09-23T06:25:00,6,南南東,16,南南東,27.2,75.9,0,0,19.5,39
387,2019-09-23T06:26:00,6.2,南南東,16,南南東,27.1,76.1,0,0,19.5,39
388,2019-09-23T06:27:00,6.2,南南東,16,南南東,27,76.5,0,0,19.5,39
389,2019-09-23T06:28:00,6.3,南南東,16,南南東,27,76.6,0,0,19.5,39
390,2019-09-23T06:29:00,6.3,南南東,16,南南東,27.1,76.4,0,0,19.5,39
391,2019-09-23T06:30:00,5.9,南南東,16,南南東,27.1,76.4,0,0,19.5,39
392,2019-09-23T06:31:00,5.5,南,16,南南東,27.1,76.2,0,0,19.5,39
393,2019-09-23T06:32:00,5.1,南,16,南南東,27.1,76.3,0,0,19.5,39
394,2019-09-23T06:33:00,5.2,南,16,南南東,27,76.5,0,0,19.5,39
395,2019-09-23T06:34:00,4.9,南,12,南東,27,76.6,0,0,19.5,39